{"data":{"norad_id":65086,"intl_designator":"2025-167J","name":"STARLINK-34822","alt_names":[],"object_type":"PAYLOAD","status":"ACTIVE","operator":null,"country":"US","launch_date":"2025-08-04","launch_site_code":"AFETR","launch_vehicle":null,"mission":null,"orbit_class":"UNKNOWN","rcs_meters":null,"size_class":null,"mass_kg":null,"dimensions":null,"purposes":["comms"],"wikipedia_slug":null,"has_3d_model":false,"image_url":null,"decayed_at":null,"tle_current":{"epoch":"2026-09-20T07:37:49.782720Z","epoch_age_seconds":135970,"freshness":"FRESH","line1":"1 65086U 25167J   26263.31793730  .00020402  00000+0  61296-3 0  9992","line2":"2 65086  53.1586 202.2544 0000795  72.7592 287.3497 15.34417940 63284","mean_motion":15.3441794,"eccentricity":7.95e-5,"inclination_deg":53.1586,"raan_deg":202.2544,"arg_perigee_deg":72.7592,"mean_anomaly_deg":287.3497,"bstar":0.00061296,"rev_number":6328,"period_min":93.846660838702,"perigee_km":462.10607670586,"apogee_km":463.19376182602,"semimajor_km":6840.7869192659,"source":"CELESTRAK","updated_at":"2026-09-21T09:00:35.522279Z"}}}